Weather History for Corpus Christi, TX

Change the Weather History Date:

Wednesday, November 9, 2011

  Actual Average Record
Temperature  
Mean Temperature 64 °F 68 °F  
Max Temperature 74 °F 78 °F 90 °F (1979)
Min Temperature 54 °F 58 °F 34 °F (1991)
Degree Days  
Heating Degree Days 1 2  
Month to date heating degree days 11 13  
Since 1 July heating degree days 23 23  
Cooling Degree Days 0 5  
Month to date cooling degree days 59 52  
Year to date cooling degree days 3968 3403  
Growing Degree Days 14 (Base 50)    
Moisture  
Dew Point 41 °F    
Average Humidity 49    
Maximum Humidity 66    
Minimum Humidity 32    
Precipitation  
Precipitation 0.02 in 0.08 in 2.19 in (1986)
Month to date precipitation 0.16 0.76  
Year to date precipitation 10.70 28.72  
Snow  
Snow 0.00 in - - ()
Month to date snowfall 0.0  
Since 1 July snowfall 0.0  
Since 1 September snowfall 0.0  
Snow Depth 0.00 in    
Sea Level Pressure  
Sea Level Pressure 30.21 in    
Wind  
Wind Speed 18 mph (North)    
Max Wind Speed 28 mph    
Max Gust Speed 33 mph    
Visibility 10 miles    
Events Rain , Thunderstorm    
T = Trace of Precipitation, MM = Missing Value Source: NWS Daily Summary

Daily Weather History Graph

Daily Weather History Graph

Search for Another Location

Airport:

Trip Planner

Search our weather history database for the weather conditions in past years. The results will help you decide how hot, cold, wet, or windy it might be!

Date:

Astronomy

Nov. 09, 2011 Rise Set
Actual Time 6:46 AM CST 5:40 PM CST
Civil Twilight 6:22 AM CST 6:05 PM CST
Nautical Twilight 5:54 AM CST 6:33 PM CST
Astronomical Twilight 5:26 AM CST 7:01 PM CST
Moon 4:54 PM CST (11/9) 5:44 AM CST (11/9)
Length of Visible Light 11h 43m
Length of Day
10h 54m
Waxing Gibbous, 99% of the Moon is Illuminated
Nov 9
Waxing Gibbous
Nov 10
Full
Nov 18
Last Quarter
Nov 25
New
Dec 2
First Quarter

Hourly Weather History & Observations

Time (CST) Temp. Dew Point Humidity Pressure Visibility Wind Dir Wind Speed Gust Speed Precip Events Conditions
12:51 AM 73.0 °F 48.0 °F 41% 30.06 in 10.0 mi North 18.4 mph - N/A   Mostly Cloudy
1:51 AM 69.1 °F 45.0 °F 42% 30.06 in 10.0 mi North 16.1 mph - N/A   Partly Cloudy
2:51 AM 66.9 °F 39.9 °F 37% 30.06 in 10.0 mi North 13.8 mph - N/A   Partly Cloudy
3:51 AM 64.9 °F 37.9 °F 37% 30.08 in 10.0 mi North 15.0 mph - N/A   Partly Cloudy
4:51 AM 64.0 °F 36.0 °F 35% 30.10 in 10.0 mi North 20.7 mph 29.9 mph N/A   Partly Cloudy
5:51 AM 60.1 °F 36.0 °F 41% 30.12 in 10.0 mi North 21.9 mph 28.8 mph N/A   Clear
6:51 AM 59.0 °F 41.0 °F 51% 30.17 in 10.0 mi NNE 20.7 mph 31.1 mph N/A   Partly Cloudy
7:51 AM 60.1 °F 41.0 °F 49% 30.22 in 10.0 mi NNE 26.5 mph 29.9 mph N/A   Partly Cloudy
8:51 AM 62.1 °F 43.0 °F 50% 30.24 in 10.0 mi North 18.4 mph 25.3 mph N/A   Clear
9:51 AM 64.0 °F 41.0 °F 43% 30.25 in 10.0 mi North 24.2 mph - N/A   Clear
10:51 AM 66.0 °F 39.9 °F 38% 30.25 in 10.0 mi North 20.7 mph 26.5 mph N/A   Clear
11:51 AM 66.9 °F 39.9 °F 37% 30.25 in 10.0 mi North 13.8 mph - N/A   Mostly Cloudy
12:51 PM 68.0 °F 39.0 °F 35% 30.22 in 10.0 mi North 17.3 mph - N/A   Overcast
1:51 PM 68.0 °F 37.0 °F 32% 30.21 in 10.0 mi NNW 19.6 mph - N/A   Overcast
2:51 PM 66.9 °F 37.0 °F 33% 30.20 in 10.0 mi NNW 13.8 mph 23.0 mph N/A   Mostly Cloudy
3:17 PM 66.2 °F 37.4 °F 35% 30.19 in 10.0 mi North 18.4 mph - N/A Thunderstorm Thunderstorm
3:40 PM 64.4 °F 44.6 °F 49% 30.21 in 10.0 mi NNW 11.5 mph - 0.00 in   Mostly Cloudy
3:51 PM 64.9 °F 43.0 °F 45% 30.21 in 10.0 mi NNW 12.7 mph - 0.00 in Rain Light Rain
4:51 PM 64.0 °F 39.0 °F 40% 30.22 in 10.0 mi NNW 17.3 mph - 0.00 in Rain Light Rain
5:51 PM 59.0 °F 45.0 °F 60% 30.26 in 10.0 mi NNW 15.0 mph - 0.00 in   Mostly Cloudy
6:51 PM 59.0 °F 44.1 °F 58% 30.26 in 10.0 mi North 21.9 mph 27.6 mph 0.00 in Rain Light Rain
7:51 PM 59.0 °F 42.1 °F 53% 30.29 in 10.0 mi North 18.4 mph - 0.00 in   Mostly Cloudy
8:51 PM 60.1 °F 41.0 °F 49% 30.31 in 10.0 mi North 17.3 mph - N/A   Overcast
9:51 PM 57.0 °F 44.1 °F 62% 30.35 in 10.0 mi North 18.4 mph - 0.00 in Rain Light Rain
10:51 PM 55.0 °F 44.1 °F 67% 30.36 in 10.0 mi North 10.4 mph - 0.01 in Rain Light Rain
11:51 PM 54.0 °F 44.1 °F 69% 30.38 in 10.0 mi North 13.8 mph - 0.01 in Rain Light Rain